Tracking 20624 objects as of 28-Mar-2020
HD Live streaming from Space Station
objects crossing your sky now

COSMOS 2535 DEB

Track COSMOS 2535 DEB now!
10-day predictions


NORAD ID: 45015
Int'l Code: 2019-039AG
Perigee: 446.7 km
Apogee: 952.6 km
Inclination: 97.1 °
Period: 98.6 minutes
Semi major axis: 7070 km
RCS: Unknown
Launch date: July 10, 2019
Source: Commonwealth of Independent States (former USSR) (CIS)
Launch site: PLESETSK MISSILE AND SPACE COMPLEX (PKMTR)

Note: This is SATELLITE DEBRIS
aabbcc
Your satellite tracking list
Your tracking list is empty




NASA's NSSDC Master Catalog

Two Line Element Set (TLE):
1 45015U 19039AG  20014.58696884  .00311825  00000-0  25084-1 0  9998
2 45015  97.1086  68.5175 0357781 321.8718  35.7651 14.60206289   725
Source of the keplerian elements: AFSPC